iso_date,epoch_date,Year,Hour,Min,DOY,POS_DOY,Lat,Lon,BP,Ts,Ta,has_bp,has_ts,has_ta,BuoyID,Buoy_Type,Buoy_Owner,Logistics,Hemisphere
2020-11-17T22:01:03Z,1605650463,2020,22,1,322.9174,322.9174,79.80446,136.85615,978.5,13.55,-999.0,yes,yes,no,300234067527560,UTAP,USIABP,unknown,North
2020-11-17T22:59:57Z,1605653997,2020,23,0,322.9583,322.9583,79.8132,136.9007,978.9,-1.85,-999.0,yes,yes,no,300234067527560,UTAP,USIABP,unknown,North
2020-11-18T00:00:00Z,1605657600,2020,0,0,323.0,323.0,79.81268,136.93781,979.2,-3.3,-999.0,yes,yes,no,300234067527560,UTAP,USIABP,unknown,North
2020-11-18T01:00:02Z,1605661203,2020,1,0,323.0417,323.0417,79.80977,136.96864,979.3,-1.9,-999.0,yes,yes,no,300234067527560,UTAP,USIABP,unknown,North
2020-11-18T01:59:57Z,1605664797,2020,2,0,323.0833,323.0833,79.80909,136.98648,979.5,-2.85,-999.0,yes,yes,no,300234067527560,UTAP,USIABP,unknown,North
2020-11-18T03:00:00Z,1605668400,2020,3,0,323.125,323.125,79.80825,137.00449,979.8,-2.8,-999.0,yes,yes,no,300234067527560,UTAP,USIABP,unknown,North
2020-11-18T04:00:02Z,1605672003,2020,4,0,323.1667,323.1667,79.80902,137.02396,979.6,-2.9,-999.0,yes,yes,no,300234067527560,UTAP,USIABP,unknown,North
2020-11-18T04:59:57Z,1605675597,2020,5,0,323.2083,323.2083,79.81154,137.04755,979.5,-3.0,-999.0,yes,yes,no,300234067527560,UTAP,USIABP,unknown,North
2020-11-18T06:00:00Z,1605679200,2020,6,0,323.25,323.25,79.81347,137.0801,979.5,-3.15,-999.0,yes,yes,no,300234067527560,UTAP,USIABP,unknown,North
2020-11-18T07:00:02Z,1605682803,2020,7,0,323.2917,323.2917,79.81539,137.11864,979.7,-3.25,-999.0,yes,yes,no,300234067527560,UTAP,USIABP,unknown,North
2020-11-18T07:59:57Z,1605686397,2020,8,0,323.3333,323.3333,79.81561,137.16966,979.9,-3.5,-999.0,yes,yes,no,300234067527560,UTAP,USIABP,unknown,North
2020-11-18T09:00:00Z,1605690000,2020,9,0,323.375,323.375,79.81446,137.22496,980.0,-4.05,-999.0,yes,yes,no,300234067527560,UTAP,USIABP,unknown,North
2020-11-18T10:00:02Z,1605693603,2020,10,0,323.4167,323.4167,79.81257,137.27364,980.1,-4.6,-999.0,yes,yes,no,300234067527560,UTAP,USIABP,unknown,North
2020-11-18T10:59:57Z,1605697197,2020,11,0,323.4583,323.4583,79.80971,137.32137,980.4,-5.2,-999.0,yes,yes,no,300234067527560,UTAP,USIABP,unknown,North
2020-11-18T12:00:00Z,1605700800,2020,12,0,323.5,323.5,79.80602,137.35668,980.6,-5.7,-999.0,yes,yes,no,300234067527560,UTAP,USIABP,unknown,North
2020-11-18T13:00:02Z,1605704403,2020,13,0,323.5417,323.5417,79.80074,137.38326,981.1,-6.6,-999.0,yes,yes,no,300234067527560,UTAP,USIABP,unknown,North
2020-11-18T13:59:57Z,1605707997,2020,14,0,323.5833,323.5833,79.79738,137.41271,981.5,-7.25,-999.0,yes,yes,no,300234067527560,UTAP,USIABP,unknown,North
2020-11-18T15:00:00Z,1605711600,2020,15,0,323.625,323.625,79.79702,137.44171,981.6,-7.5,-999.0,yes,yes,no,300234067527560,UTAP,USIABP,unknown,North
2020-11-18T16:00:02Z,1605715203,2020,16,0,323.6667,323.6667,79.79905,137.48038,982.1,-7.05,-999.0,yes,yes,no,300234067527560,UTAP,USIABP,unknown,North
2020-11-18T16:59:57Z,1605718797,2020,17,0,323.7083,323.7083,79.80204,137.53084,982.4,-7.5,-999.0,yes,yes,no,300234067527560,UTAP,USIABP,unknown,North
2020-11-18T18:00:00Z,1605722400,2020,18,0,323.75,323.75,79.80598,137.58637,982.4,-7.15,-999.0,yes,yes,no,300234067527560,UTAP,USIABP,unknown,North
2020-11-18T19:00:02Z,1605726003,2020,19,0,323.7917,323.7917,79.80977,137.64374,982.7,-7.25,-999.0,yes,yes,no,300234067527560,UTAP,USIABP,unknown,North
2020-11-18T19:59:57Z,1605729597,2020,20,0,323.8333,323.8333,79.81434,137.71068,982.9,-7.05,-999.0,yes,yes,no,300234067527560,UTAP,USIABP,unknown,North
2020-11-18T21:00:00Z,1605733200,2020,21,0,323.875,323.875,79.81848,137.77746,983.1,-6.8,-999.0,yes,yes,no,300234067527560,UTAP,USIABP,unknown,North
2020-11-18T22:00:02Z,1605736803,2020,22,0,323.9167,323.9167,79.82201,137.84551,983.3,-6.7,-999.0,yes,yes,no,300234067527560,UTAP,USIABP,unknown,North
2020-11-18T22:59:57Z,1605740397,2020,23,0,323.9583,323.9583,79.82478,137.90511,983.4,-6.75,-999.0,yes,yes,no,300234067527560,UTAP,USIABP,unknown,North
2020-11-19T00:00:00Z,1605744000,2020,0,0,324.0,324.0,79.82843,137.94629,983.3,-6.55,-999.0,yes,yes,no,300234067527560,UTAP,USIABP,unknown,North
2020-11-19T01:00:02Z,1605747603,2020,1,0,324.0417,324.0417,79.83368,137.98311,983.2,-6.4,-999.0,yes,yes,no,300234067527560,UTAP,USIABP,unknown,North
2020-11-19T01:59:57Z,1605751197,2020,2,0,324.0833,324.0833,79.83859,138.02124,983.3,-6.3,-999.0,yes,yes,no,300234067527560,UTAP,USIABP,unknown,North
2020-11-19T03:00:00Z,1605754800,2020,3,0,324.125,324.125,79.84553,138.05477,983.2,-6.2,-999.0,yes,yes,no,300234067527560,UTAP,USIABP,unknown,North
2020-11-19T04:00:02Z,1605758403,2020,4,0,324.1667,324.1667,79.85588,138.08354,982.6,-5.65,-999.0,yes,yes,no,300234067527560,UTAP,USIABP,unknown,North
2020-11-19T04:59:57Z,1605761997,2020,5,0,324.2083,324.2083,79.86854,138.11529,982.2,-3.8,-999.0,yes,yes,no,300234067527560,UTAP,USIABP,unknown,North
2020-11-19T06:00:00Z,1605765600,2020,6,0,324.25,324.25,79.8805,138.16535,981.8,-2.7,-999.0,yes,yes,no,300234067527560,UTAP,USIABP,unknown,North
2020-11-19T07:00:02Z,1605769203,2020,7,0,324.2917,324.2917,79.89393,138.2285,981.3,-3.7,-999.0,yes,yes,no,300234067527560,UTAP,USIABP,unknown,North
2020-11-19T07:59:57Z,1605772797,2020,8,0,324.3333,324.3333,79.90727,138.30454,980.9,-3.85,-999.0,yes,yes,no,300234067527560,UTAP,USIABP,unknown,North
2020-11-19T09:00:00Z,1605776400,2020,9,0,324.375,324.375,79.92116,138.3806,980.1,-4.05,-999.0,yes,yes,no,300234067527560,UTAP,USIABP,unknown,North
2020-11-19T10:00:02Z,1605780003,2020,10,0,324.4167,324.4167,79.935,138.45672,979.3,-1.8,-999.0,yes,yes,no,300234067527560,UTAP,USIABP,unknown,North
2020-11-19T10:59:57Z,1605783597,2020,11,0,324.4583,324.4583,79.94761,138.52507,978.4,-1.8,-999.0,yes,yes,no,300234067527560,UTAP,USIABP,unknown,North
2020-11-19T12:00:00Z,1605787200,2020,12,0,324.5,324.5,79.96069,138.58747,977.2,-1.85,-999.0,yes,yes,no,300234067527560,UTAP,USIABP,unknown,North
2020-11-19T13:00:02Z,1605790803,2020,13,0,324.5417,324.5417,79.97448,138.64089,976.0,-1.8,-999.0,yes,yes,no,300234067527560,UTAP,USIABP,unknown,North
2020-11-19T13:59:57Z,1605794397,2020,14,0,324.5833,324.5833,79.98781,138.68706,975.3,-1.8,-999.0,yes,yes,no,300234067527560,UTAP,USIABP,unknown,North
2020-11-19T15:00:00Z,1605798000,2020,15,0,324.625,324.625,79.99776,138.75446,976.1,-1.8,-999.0,yes,yes,no,300234067527560,UTAP,USIABP,unknown,North
2020-11-19T16:00:02Z,1605801603,2020,16,0,324.6667,324.6667,80.00248,138.83352,977.1,-1.8,-999.0,yes,yes,no,300234067527560,UTAP,USIABP,unknown,North
2020-11-19T16:59:57Z,1605805197,2020,17,0,324.7083,324.7083,80.00572,138.90164,977.8,-1.85,-999.0,yes,yes,no,300234067527560,UTAP,USIABP,unknown,North
2020-11-19T18:00:00Z,1605808800,2020,18,0,324.75,324.75,80.00798,138.96322,978.4,-1.85,-999.0,yes,yes,no,300234067527560,UTAP,USIABP,unknown,North
2020-11-19T19:00:02Z,1605812403,2020,19,0,324.7917,324.7917,80.00994,139.01476,978.8,-1.85,-999.0,yes,yes,no,300234067527560,UTAP,USIABP,unknown,North
2020-11-19T19:59:57Z,1605815997,2020,20,0,324.8333,324.8333,80.01337,139.05352,979.2,-1.85,-999.0,yes,yes,no,300234067527560,UTAP,USIABP,unknown,North
2020-11-19T21:00:00Z,1605819600,2020,21,0,324.875,324.875,80.01941,139.08107,979.1,-1.85,-999.0,yes,yes,no,300234067527560,UTAP,USIABP,unknown,North
2020-11-19T22:00:02Z,1605823203,2020,22,0,324.9167,324.9167,80.02783,139.1033,979.3,-1.85,-999.0,yes,yes,no,300234067527560,UTAP,USIABP,unknown,North
2020-11-19T22:59:57Z,1605826797,2020,23,0,324.9583,324.9583,80.03741,139.12904,979.1,-1.8,-999.0,yes,yes,no,300234067527560,UTAP,USIABP,unknown,North
2020-11-20T00:00:00Z,1605830400,2020,0,0,325.0,325.0,80.04694,139.16317,979.2,-1.8,-999.0,yes,yes,no,300234067527560,UTAP,USIABP,unknown,North
2020-11-20T01:00:02Z,1605834003,2020,1,0,325.0417,325.0417,80.05656,139.20613,979.0,-1.8,-999.0,yes,yes,no,300234067527560,UTAP,USIABP,unknown,North
2020-11-20T01:59:57Z,1605837597,2020,2,0,325.0833,325.0833,80.06269,139.28669,980.2,-1.8,-999.0,yes,yes,no,300234067527560,UTAP,USIABP,unknown,North
2020-11-20T03:00:00Z,1605841200,2020,3,0,325.125,325.125,80.06939,139.37706,980.8,-1.8,-999.0,yes,yes,no,300234067527560,UTAP,USIABP,unknown,North
2020-11-20T04:00:02Z,1605844803,2020,4,0,325.1667,325.1667,80.06774,139.4948,983.3,-1.85,-999.0,yes,yes,no,300234067527560,UTAP,USIABP,unknown,North
2020-11-20T04:59:57Z,1605848397,2020,5,0,325.2083,325.2083,80.06163,139.59557,985.5,-1.85,-999.0,yes,yes,no,300234067527560,UTAP,USIABP,unknown,North
2020-11-20T06:00:00Z,1605852000,2020,6,0,325.25,325.25,80.05435,139.68424,987.5,-1.85,-999.0,yes,yes,no,300234067527560,UTAP,USIABP,unknown,North
2020-11-20T07:00:02Z,1605855603,2020,7,0,325.2917,325.2917,80.04715,139.75639,989.2,-1.85,-999.0,yes,yes,no,300234067527560,UTAP,USIABP,unknown,North
2020-11-20T07:59:57Z,1605859197,2020,8,0,325.3333,325.3333,80.04104,139.79951,991.0,-1.85,-999.0,yes,yes,no,300234067527560,UTAP,USIABP,unknown,North
2020-11-20T09:00:00Z,1605862800,2020,9,0,325.375,325.375,80.03847,139.82467,992.8,-1.85,-999.0,yes,yes,no,300234067527560,UTAP,USIABP,unknown,North
2020-11-20T10:00:02Z,1605866403,2020,10,0,325.4167,325.4167,80.04014,139.84405,994.1,-1.85,-999.0,yes,yes,no,300234067527560,UTAP,USIABP,unknown,North
2020-11-20T10:59:57Z,1605869997,2020,11,0,325.4583,325.4583,80.04616,139.86412,995.4,-1.85,-999.0,yes,yes,no,300234067527560,UTAP,USIABP,unknown,North
2020-11-20T12:00:00Z,1605873600,2020,12,0,325.5,325.5,80.05478,139.89266,996.3,-1.9,-999.0,yes,yes,no,300234067527560,UTAP,USIABP,unknown,North
2020-11-20T13:00:02Z,1605877203,2020,13,0,325.5417,325.5417,80.06435,139.93224,996.8,-1.9,-999.0,yes,yes,no,300234067527560,UTAP,USIABP,unknown,North
2020-11-20T13:59:57Z,1605880797,2020,14,0,325.5833,325.5833,80.07369,139.98248,997.4,-1.9,-999.0,yes,yes,no,300234067527560,UTAP,USIABP,unknown,North
2020-11-20T15:00:00Z,1605884400,2020,15,0,325.625,325.625,80.08243,140.04576,997.8,-1.9,-999.0,yes,yes,no,300234067527560,UTAP,USIABP,unknown,North
2020-11-20T16:00:02Z,1605888003,2020,16,0,325.6667,325.6667,80.08972,140.11571,998.3,-1.85,-999.0,yes,yes,no,300234067527560,UTAP,USIABP,unknown,North
2020-11-20T16:59:57Z,1605891597,2020,17,0,325.7083,325.7083,80.09396,140.18066,998.4,-1.85,-999.0,yes,yes,no,300234067527560,UTAP,USIABP,unknown,North
2020-11-20T18:00:00Z,1605895200,2020,18,0,325.75,325.75,80.09671,140.22489,998.6,-1.9,-999.0,yes,yes,no,300234067527560,UTAP,USIABP,unknown,North
2020-11-20T19:00:02Z,1605898803,2020,19,0,325.7917,325.7917,80.09903,140.25136,998.6,-1.9,-999.0,yes,yes,no,300234067527560,UTAP,USIABP,unknown,North
2020-11-20T19:59:57Z,1605902397,2020,20,0,325.8333,325.8333,80.10304,140.265,998.5,-1.9,-999.0,yes,yes,no,300234067527560,UTAP,USIABP,unknown,North
2020-11-20T21:00:00Z,1605906000,2020,21,0,325.875,325.875,80.11032,140.26974,998.6,-1.9,-999.0,yes,yes,no,300234067527560,UTAP,USIABP,unknown,North
2020-11-20T22:00:02Z,1605909603,2020,22,0,325.9167,325.9167,80.12072,140.27094,998.4,-1.9,-999.0,yes,yes,no,300234067527560,UTAP,USIABP,unknown,North
2020-11-20T22:59:57Z,1605913197,2020,23,0,325.9583,325.9583,80.13372,140.27005,997.9,-1.9,-999.0,yes,yes,no,300234067527560,UTAP,USIABP,unknown,North
2020-11-21T00:00:00Z,1605916800,2020,0,0,326.0,326.0,80.14779,140.26903,997.4,-1.9,-999.0,yes,yes,no,300234067527560,UTAP,USIABP,unknown,North
2020-11-21T01:00:02Z,1605920403,2020,1,0,326.0417,326.0417,80.1633,140.27451,996.9,-1.95,-999.0,yes,yes,no,300234067527560,UTAP,USIABP,unknown,North
2020-11-21T01:59:57Z,1605923997,2020,2,0,326.0833,326.0833,80.17979,140.28975,996.4,-1.95,-999.0,yes,yes,no,300234067527560,UTAP,USIABP,unknown,North
2020-11-21T03:00:00Z,1605927600,2020,3,0,326.125,326.125,80.19579,140.31162,995.8,-2.0,-999.0,yes,yes,no,300234067527560,UTAP,USIABP,unknown,North
2020-11-21T04:00:02Z,1605931203,2020,4,0,326.1667,326.1667,80.21091,140.34106,995.1,-2.0,-999.0,yes,yes,no,300234067527560,UTAP,USIABP,unknown,North
2020-11-21T04:59:57Z,1605934797,2020,5,0,326.2083,326.2083,80.22438,140.36621,994.3,-2.1,-999.0,yes,yes,no,300234067527560,UTAP,USIABP,unknown,North
2020-11-21T06:00:00Z,1605938400,2020,6,0,326.25,326.25,80.23613,140.38417,993.7,-2.15,-999.0,yes,yes,no,300234067527560,UTAP,USIABP,unknown,North
2020-11-21T07:00:02Z,1605942003,2020,7,0,326.2917,326.2917,80.2461,140.39708,993.3,-2.2,-999.0,yes,yes,no,300234067527560,UTAP,USIABP,unknown,North
2020-11-21T07:59:57Z,1605945597,2020,8,0,326.3333,326.3333,80.25401,140.41665,993.4,-2.2,-999.0,yes,yes,no,300234067527560,UTAP,USIABP,unknown,North
2020-11-21T09:00:00Z,1605949200,2020,9,0,326.375,326.375,80.25883,140.44639,993.4,-2.25,-999.0,yes,yes,no,300234067527560,UTAP,USIABP,unknown,North
2020-11-21T10:00:02Z,1605952803,2020,10,0,326.4167,326.4167,80.26422,140.46779,993.6,-2.25,-999.0,yes,yes,no,300234067527560,UTAP,USIABP,unknown,North
2020-11-21T10:59:57Z,1605956397,2020,11,0,326.4583,326.4583,80.26971,140.48809,993.6,-2.3,-999.0,yes,yes,no,300234067527560,UTAP,USIABP,unknown,North
2020-11-21T12:00:00Z,1605960000,2020,12,0,326.5,326.5,80.27506,140.50502,994.0,-2.3,-999.0,yes,yes,no,300234067527560,UTAP,USIABP,unknown,North
2020-11-21T13:00:02Z,1605963603,2020,13,0,326.5417,326.5417,80.28099,140.51818,994.3,-2.3,-999.0,yes,yes,no,300234067527560,UTAP,USIABP,unknown,North
2020-11-21T13:59:57Z,1605967197,2020,14,0,326.5833,326.5833,80.2891,140.53285,994.4,-2.3,-999.0,yes,yes,no,300234067527560,UTAP,USIABP,unknown,North
2020-11-21T15:00:00Z,1605970800,2020,15,0,326.625,326.625,80.29915,140.55389,994.2,-2.3,-999.0,yes,yes,no,300234067527560,UTAP,USIABP,unknown,North
2020-11-21T16:00:02Z,1605974403,2020,16,0,326.6667,326.6667,80.31079,140.59257,994.7,-2.3,-999.0,yes,yes,no,300234067527560,UTAP,USIABP,unknown,North
2020-11-21T16:59:57Z,1605977997,2020,17,0,326.7083,326.7083,80.32172,140.64324,994.7,-2.3,-999.0,yes,yes,no,300234067527560,UTAP,USIABP,unknown,North
2020-11-21T18:00:00Z,1605981600,2020,18,0,326.75,326.75,80.33202,140.69382,994.6,-2.3,-999.0,yes,yes,no,300234067527560,UTAP,USIABP,unknown,North
2020-11-21T19:00:02Z,1605985203,2020,19,0,326.7917,326.7917,80.34086,140.75632,995.0,-2.3,-999.0,yes,yes,no,300234067527560,UTAP,USIABP,unknown,North
2020-11-21T19:59:57Z,1605988797,2020,20,0,326.8333,326.8333,80.34815,140.81143,995.1,-2.3,-999.0,yes,yes,no,300234067527560,UTAP,USIABP,unknown,North
2020-11-21T21:00:00Z,1605992400,2020,21,0,326.875,326.875,80.35569,140.8638,995.5,-2.3,-999.0,yes,yes,no,300234067527560,UTAP,USIABP,unknown,North
2020-11-21T22:00:02Z,1605996003,2020,22,0,326.9167,326.9167,80.36313,140.91205,996.0,-2.35,-999.0,yes,yes,no,300234067527560,UTAP,USIABP,unknown,North
2020-11-21T22:59:57Z,1605999597,2020,23,0,326.9583,326.9583,80.37016,140.95038,996.4,-2.35,-999.0,yes,yes,no,300234067527560,UTAP,USIABP,unknown,North
2020-11-22T00:00:00Z,1606003200,2020,0,0,327.0,327.0,80.37834,140.9836,996.8,-2.4,-999.0,yes,yes,no,300234067527560,UTAP,USIABP,unknown,North
2020-11-22T01:00:02Z,1606006803,2020,1,0,327.0417,327.0417,80.38789,141.02245,997.3,-2.4,-999.0,yes,yes,no,300234067527560,UTAP,USIABP,unknown,North
2020-11-22T01:59:57Z,1606010397,2020,2,0,327.0833,327.0833,80.39784,141.06331,997.8,-2.45,-999.0,yes,yes,no,300234067527560,UTAP,USIABP,unknown,North
2020-11-22T03:00:00Z,1606014000,2020,3,0,327.125,327.125,80.40951,141.10657,998.3,-2.5,-999.0,yes,yes,no,300234067527560,UTAP,USIABP,unknown,North
2020-11-22T04:00:02Z,1606017603,2020,4,0,327.1667,327.1667,80.42164,141.15572,998.9,-2.5,-999.0,yes,yes,no,300234067527560,UTAP,USIABP,unknown,North
2020-11-22T04:59:57Z,1606021197,2020,5,0,327.2083,327.2083,80.43395,141.20883,999.7,-2.55,-999.0,yes,yes,no,300234067527560,UTAP,USIABP,unknown,North
2020-11-22T06:00:00Z,1606024800,2020,6,0,327.25,327.25,80.44545,141.26706,1000.0,-2.6,-999.0,yes,yes,no,300234067527560,UTAP,USIABP,unknown,North
2020-11-22T07:00:02Z,1606028403,2020,7,0,327.2917,327.2917,80.45452,141.32237,1000.6,-2.65,-999.0,yes,yes,no,300234067527560,UTAP,USIABP,unknown,North
2020-11-22T07:59:57Z,1606031997,2020,8,0,327.3333,327.3333,80.46212,141.37579,1001.3,-2.7,-999.0,yes,yes,no,300234067527560,UTAP,USIABP,unknown,North
2020-11-22T09:00:00Z,1606035600,2020,9,0,327.375,327.375,80.46814,141.42114,1001.8,-2.75,-999.0,yes,yes,no,300234067527560,UTAP,USIABP,unknown,North
2020-11-22T10:00:02Z,1606039203,2020,10,0,327.4167,327.4167,80.47352,141.45461,1002.4,-2.8,-999.0,yes,yes,no,300234067527560,UTAP,USIABP,unknown,North
2020-11-22T10:59:57Z,1606042797,2020,11,0,327.4583,327.4583,80.47879,141.47796,1003.1,-2.8,-999.0,yes,yes,no,300234067527560,UTAP,USIABP,unknown,North
2020-11-22T12:00:00Z,1606046400,2020,12,0,327.5,327.5,80.48526,141.49502,1003.4,-2.85,-999.0,yes,yes,no,300234067527560,UTAP,USIABP,unknown,North
2020-11-22T13:00:02Z,1606050003,2020,13,0,327.5417,327.5417,80.49322,141.51186,1003.6,-2.9,-999.0,yes,yes,no,300234067527560,UTAP,USIABP,unknown,North
2020-11-22T13:59:57Z,1606053597,2020,14,0,327.5833,327.5833,80.50244,141.52538,1004.1,-2.95,-999.0,yes,yes,no,300234067527560,UTAP,USIABP,unknown,North
2020-11-22T15:00:00Z,1606057200,2020,15,0,327.625,327.625,80.51337,141.53784,1004.7,-2.95,-999.0,yes,yes,no,300234067527560,UTAP,USIABP,unknown,North
2020-11-22T16:00:02Z,1606060803,2020,16,0,327.6667,327.6667,80.52494,141.56348,1005.3,-3.0,-999.0,yes,yes,no,300234067527560,UTAP,USIABP,unknown,North
2020-11-22T16:59:57Z,1606064397,2020,17,0,327.7083,327.7083,80.53533,141.60023,1005.6,-3.0,-999.0,yes,yes,no,300234067527560,UTAP,USIABP,unknown,North
2020-11-22T18:00:00Z,1606068000,2020,18,0,327.75,327.75,80.54337,141.64013,1006.2,-3.05,-999.0,yes,yes,no,300234067527560,UTAP,USIABP,unknown,North
2020-11-22T19:00:02Z,1606071603,2020,19,0,327.7917,327.7917,80.54928,141.67589,1006.6,-3.05,-999.0,yes,yes,no,300234067527560,UTAP,USIABP,unknown,North
2020-11-22T19:59:57Z,1606075197,2020,20,0,327.8333,327.8333,80.55431,141.70803,1007.1,-3.05,-999.0,yes,yes,no,300234067527560,UTAP,USIABP,unknown,North
2020-11-22T21:00:00Z,1606078800,2020,21,0,327.875,327.875,80.55828,141.73472,1007.9,-3.05,-999.0,yes,yes,no,300234067527560,UTAP,USIABP,unknown,North
2020-11-22T22:00:02Z,1606082403,2020,22,0,327.9167,327.9167,80.56147,141.75199,1008.4,-3.05,-999.0,yes,yes,no,300234067527560,UTAP,USIABP,unknown,North
2020-11-22T22:59:57Z,1606085997,2020,23,0,327.9583,327.9583,80.56514,141.75608,1008.7,-3.05,-999.0,yes,yes,no,300234067527560,UTAP,USIABP,unknown,North
2020-11-23T00:00:00Z,1606089600,2020,0,0,328.0,328.0,80.56985,141.74908,1009.1,-3.0,-999.0,yes,yes,no,300234067527560,UTAP,USIABP,unknown,North
2020-11-23T01:00:02Z,1606093203,2020,1,0,328.0417,328.0417,80.5765,141.73987,1009.5,-3.0,-999.0,yes,yes,no,300234067527560,UTAP,USIABP,unknown,North
2020-11-23T01:59:57Z,1606096797,2020,2,0,328.0833,328.0833,80.58394,141.7344,1009.8,-3.05,-999.0,yes,yes,no,300234067527560,UTAP,USIABP,unknown,North
2020-11-23T03:00:00Z,1606100400,2020,3,0,328.125,328.125,80.5916,141.73504,1010.4,-3.05,-999.0,yes,yes,no,300234067527560,UTAP,USIABP,unknown,North
2020-11-23T04:00:02Z,1606104003,2020,4,0,328.1667,328.1667,80.59912,141.74385,1011.0,-3.1,-999.0,yes,yes,no,300234067527560,UTAP,USIABP,unknown,North
2020-11-23T04:59:57Z,1606107597,2020,5,0,328.2083,328.2083,80.60596,141.75922,1011.5,-3.15,-999.0,yes,yes,no,300234067527560,UTAP,USIABP,unknown,North
2020-11-23T06:00:00Z,1606111200,2020,6,0,328.25,328.25,80.61138,141.77741,1011.9,-3.2,-999.0,yes,yes,no,300234067527560,UTAP,USIABP,unknown,North
2020-11-23T07:00:02Z,1606114803,2020,7,0,328.2917,328.2917,80.61486,141.79479,1012.4,-3.25,-999.0,yes,yes,no,300234067527560,UTAP,USIABP,unknown,North
2020-11-23T07:59:57Z,1606118397,2020,8,0,328.3333,328.3333,80.61682,141.80923,1012.9,-3.3,-999.0,yes,yes,no,300234067527560,UTAP,USIABP,unknown,North
2020-11-23T09:00:00Z,1606122000,2020,9,0,328.375,328.375,80.61775,141.81718,1013.4,-3.35,-999.0,yes,yes,no,300234067527560,UTAP,USIABP,unknown,North
2020-11-23T10:00:02Z,1606125603,2020,10,0,328.4167,328.4167,80.61836,141.81807,1013.8,-3.4,-999.0,yes,yes,no,300234067527560,UTAP,USIABP,unknown,North
2020-11-23T10:59:57Z,1606129197,2020,11,0,328.4583,328.4583,80.61917,141.81284,1014.2,-3.45,-999.0,yes,yes,no,300234067527560,UTAP,USIABP,unknown,North
2020-11-23T12:00:00Z,1606132800,2020,12,0,328.5,328.5,80.62082,141.80424,1014.6,-3.5,-999.0,yes,yes,no,300234067527560,UTAP,USIABP,unknown,North
2020-11-23T13:00:02Z,1606136403,2020,13,0,328.5417,328.5417,80.62367,141.79436,1014.9,-3.55,-999.0,yes,yes,no,300234067527560,UTAP,USIABP,unknown,North
2020-11-23T13:59:57Z,1606139997,2020,14,0,328.5833,328.5833,80.62744,141.78791,1015.0,-3.55,-999.0,yes,yes,no,300234067527560,UTAP,USIABP,unknown,North
2020-11-23T15:00:00Z,1606143600,2020,15,0,328.625,328.625,80.63149,141.78637,1015.3,-3.6,-999.0,yes,yes,no,300234067527560,UTAP,USIABP,unknown,North
2020-11-23T16:00:02Z,1606147203,2020,16,0,328.6667,328.6667,80.63532,141.78811,1015.6,-3.6,-999.0,yes,yes,no,300234067527560,UTAP,USIABP,unknown,North
2020-11-23T16:59:57Z,1606150797,2020,17,0,328.7083,328.7083,80.63839,141.79261,1015.9,-3.65,-999.0,yes,yes,no,300234067527560,UTAP,USIABP,unknown,North
2020-11-23T18:00:00Z,1606154400,2020,18,0,328.75,328.75,80.64051,141.79954,1016.4,-3.65,-999.0,yes,yes,no,300234067527560,UTAP,USIABP,unknown,North
2020-11-23T19:00:02Z,1606158003,2020,19,0,328.7917,328.7917,80.64161,141.80686,1016.8,-3.65,-999.0,yes,yes,no,300234067527560,UTAP,USIABP,unknown,North
2020-11-23T19:59:57Z,1606161597,2020,20,0,328.8333,328.8333,80.64174,141.81316,1017.3,-3.65,-999.0,yes,yes,no,300234067527560,UTAP,USIABP,unknown,North
2020-11-23T21:00:00Z,1606165200,2020,21,0,328.875,328.875,80.64111,141.81597,1017.7,-3.65,-999.0,yes,yes,no,300234067527560,UTAP,USIABP,unknown,North
2020-11-23T22:00:02Z,1606168803,2020,22,0,328.9167,328.9167,80.64012,141.81426,1017.9,-3.65,-999.0,yes,yes,no,300234067527560,UTAP,USIABP,unknown,North
2020-11-23T22:59:57Z,1606172397,2020,23,0,328.9583,328.9583,80.63938,141.80869,1018.2,-3.65,-999.0,yes,yes,no,300234067527560,UTAP,USIABP,unknown,North
2020-11-24T00:00:00Z,1606176000,2020,0,0,329.0,329.0,80.63936,141.79966,1018.2,-3.7,-999.0,yes,yes,no,300234067527560,UTAP,USIABP,unknown,North
2020-11-24T01:00:02Z,1606179603,2020,1,0,329.0417,329.0417,80.6404,141.79053,1018.4,-3.75,-999.0,yes,yes,no,300234067527560,UTAP,USIABP,unknown,North
2020-11-24T01:59:57Z,1606183197,2020,2,0,329.0833,329.0833,80.64231,141.78314,1018.7,-3.75,-999.0,yes,yes,no,300234067527560,UTAP,USIABP,unknown,North
2020-11-24T03:00:00Z,1606186800,2020,3,0,329.125,329.125,80.64485,141.77884,1018.9,-3.8,-999.0,yes,yes,no,300234067527560,UTAP,USIABP,unknown,North
2020-11-24T04:00:02Z,1606190403,2020,4,0,329.1667,329.1667,80.64735,141.77566,1019.1,-3.85,-999.0,yes,yes,no,300234067527560,UTAP,USIABP,unknown,North
2020-11-24T04:59:57Z,1606193997,2020,5,0,329.2083,329.2083,80.64941,141.77446,1019.5,-3.9,-999.0,yes,yes,no,300234067527560,UTAP,USIABP,unknown,North
2020-11-24T06:00:00Z,1606197600,2020,6,0,329.25,329.25,80.65072,141.77465,1019.7,-3.95,-999.0,yes,yes,no,300234067527560,UTAP,USIABP,unknown,North
2020-11-24T07:00:02Z,1606201203,2020,7,0,329.2917,329.2917,80.65111,141.77578,1019.8,-3.95,-999.0,yes,yes,no,300234067527560,UTAP,USIABP,unknown,North
2020-11-24T07:59:57Z,1606204797,2020,8,0,329.3333,329.3333,80.65058,141.77659,1020.0,-3.95,-999.0,yes,yes,no,300234067527560,UTAP,USIABP,unknown,North
2020-11-24T09:00:00Z,1606208400,2020,9,0,329.375,329.375,80.64953,141.77516,1020.3,-4.0,-999.0,yes,yes,no,300234067527560,UTAP,USIABP,unknown,North
2020-11-24T10:00:02Z,1606212003,2020,10,0,329.4167,329.4167,80.64865,141.77156,1020.7,-4.0,-999.0,yes,yes,no,300234067527560,UTAP,USIABP,unknown,North
2020-11-24T10:59:57Z,1606215597,2020,11,0,329.4583,329.4583,80.64791,141.76645,1020.6,-4.05,-999.0,yes,yes,no,300234067527560,UTAP,USIABP,unknown,North
2020-11-24T12:00:00Z,1606219200,2020,12,0,329.5,329.5,80.64769,141.75796,1020.7,-4.1,-999.0,yes,yes,no,300234067527560,UTAP,USIABP,unknown,North
2020-11-24T13:00:02Z,1606222803,2020,13,0,329.5417,329.5417,80.64836,141.75006,1020.6,-4.1,-999.0,yes,yes,no,300234067527560,UTAP,USIABP,unknown,North